Location: Unspecified
(51.0950°N, 12.9690°E)
Time: 16:47:01
(UTC+00:00)

ISS - Pass Details

Date: 29 November 2023
Orbit: 414 x 417 km, 51.6° (Epoch: 23 February)

Event Time Altitude Azimuth Distance (km) Brightness Sun altitude
Rises 17:08:27 0° 283° (WNW) 2,383 1.3 -18.4°
Reaches altitude 10° 17:10:33 10° 281° (W) 1,520 0.1 -18.7°
Maximum altitude 17:13:57 70° 198° (SSW) 459 -3.6 -19.3°
Enters shadow 17:14:26 58° 144° (SE) 504 -3.6 -19.3°
